Hillsdale, MI

2:49 PM EDT on July 20, 2017 (GMT -0400)
Hillsdale Municipal

Weather History for KJYM - November, 2011

Change the Weather History Date:

Thursday, November 17, 2011

  Actual Average Record
Temperature  
Mean Temperature 30 °F -  
Max Temperature 35 °F 47 °F 69 °F (1953)
Min Temperature 26 °F 28 °F 9 °F (1959)
Degree Days  
Heating Degree Days 34    
Moisture  
Dew Point 19 °F    
Average Humidity 62    
Maximum Humidity 69    
Minimum Humidity 52    
Precipitation  
Precipitation 0.00 in - - ()
Sea Level Pressure  
Sea Level Pressure 30.08 in    
Wind  
Wind Speed 9 mph (WSW)    
Max Wind Speed 22 mph    
Max Gust Speed 29 mph    
Visibility 10 miles    
Events Snow    
Averages and records for this station are not official NWS values.
T = Trace of Precipitation, MM = Missing Value Source: NWS Daily Summary

Daily Weather History Graph

Daily Weather History Graph

Search for Another Location

Airport or City:

Trip Planner

Search our weather history database for the weather conditions in past years. The results will help you decide how hot, cold, wet, or windy it might be!

Date:

Astronomy

Nov. 17, 2011 Rise Set
Actual Time 7:30 AM EST 5:15 PM EST
Civil Twilight 7:00 AM EST 5:46 PM EST
Nautical Twilight 6:26 AM EST 6:19 PM EST
Astronomical Twilight 5:53 AM EST 6:52 PM EST
Moon 11:37 PM EST (11/17) 12:37 PM EST (11/17)
Length of Visible Light 10h 46m
Length of Day
9h 45m
Waning Gibbous, 60% of the Moon is Illuminated
Nov 17
Waning Gibbous
Nov 18
Last Quarter
Nov 25
New
Dec 2
First Quarter
Dec 10
Full

Hourly Weather History & Observations

Time (EST) Temp. Windchill Dew Point Humidity Pressure Visibility Wind Dir Wind Speed Gust Speed Precip Events Conditions
12:15 AM 32.0 °F 24.8 °F 23.0 °F 69% 30.05 in 10.0 mi WNW 8.1 mph - N/A   Clear
12:34 AM 30.2 °F 23.4 °F 21.2 °F 69% 30.05 in 10.0 mi WNW 6.9 mph - N/A   Clear
1:15 AM 30.2 °F 25.4 °F 21.2 °F 69% 30.05 in 10.0 mi West 4.6 mph - N/A   Clear
1:34 AM 30.2 °F 25.4 °F 21.2 °F 69% 30.05 in 10.0 mi WSW 4.6 mph - N/A   Clear
1:55 AM 30.2 °F 26.7 °F 19.4 °F 64% 30.05 in 10.0 mi SW 3.5 mph - N/A   Clear
2:15 AM 30.2 °F 26.7 °F 19.4 °F 64% 30.05 in 10.0 mi SW 3.5 mph - N/A   Clear
2:34 AM 30.2 °F 26.7 °F 21.2 °F 69% 30.06 in 10.0 mi SSW 3.5 mph - N/A   Clear
2:55 AM 30.2 °F 26.7 °F 21.2 °F 69% 30.05 in 10.0 mi SW 3.5 mph - N/A   Clear
3:15 AM 30.2 °F 26.7 °F 21.2 °F 69% 30.05 in 10.0 mi SSW 3.5 mph - N/A   Clear
3:34 AM 30.2 °F 25.4 °F 19.4 °F 64% 30.05 in 10.0 mi SW 4.6 mph - N/A   Clear
3:55 AM 30.2 °F 26.7 °F 19.4 °F 64% 30.04 in 10.0 mi SW 3.5 mph - N/A   Clear
4:14 AM 30.2 °F 25.4 °F 19.4 °F 64% 30.04 in 10.0 mi SSW 4.6 mph - N/A   Clear
4:34 AM 30.2 °F 25.4 °F 19.4 °F 64% 30.03 in 10.0 mi SSW 4.6 mph - N/A   Clear
5:14 AM 30.2 °F 23.4 °F 19.4 °F 64% 30.03 in 10.0 mi SSW 6.9 mph - N/A   Clear
5:34 AM 30.2 °F 22.6 °F 19.4 °F 64% 30.04 in 10.0 mi SSW 8.1 mph - N/A   Clear
5:55 AM 30.2 °F 21.9 °F 19.4 °F 64% 30.03 in 10.0 mi SSW 9.2 mph - N/A   Clear
6:14 AM 30.2 °F 22.6 °F 19.4 °F 64% 30.03 in 10.0 mi SSW 8.1 mph - N/A   Clear
6:34 AM 30.2 °F 21.9 °F 19.4 °F 64% 30.03 in 10.0 mi SW 9.2 mph - N/A   Clear
7:14 AM 28.4 °F 22.2 °F 19.4 °F 69% 30.03 in 10.0 mi SW 5.8 mph - N/A   Clear
7:35 AM 30.2 °F 22.6 °F 19.4 °F 64% 30.03 in 10.0 mi SW 8.1 mph - N/A   Clear
7:54 AM 30.2 °F 22.6 °F 19.4 °F 64% 30.03 in 10.0 mi WSW 8.1 mph - N/A   Clear
8:14 AM 30.2 °F 21.3 °F 19.4 °F 64% 30.04 in 10.0 mi WSW 10.4 mph - N/A   Clear
8:34 AM 30.2 °F 20.8 °F 19.4 °F 64% 30.04 in 10.0 mi WSW 11.5 mph 17.3 mph N/A   Clear
8:54 AM 32.0 °F 23.6 °F 19.4 °F 60% 30.04 in 10.0 mi WSW 10.4 mph 17.3 mph N/A   Clear
9:15 AM 33.8 °F 23.5 °F 19.4 °F 56% 30.04 in 10.0 mi WSW 16.1 mph 21.9 mph N/A   Scattered Clouds
9:34 AM 33.8 °F 24.8 °F 19.4 °F 56% 30.04 in 10.0 mi West 12.7 mph 21.9 mph N/A   Clear
9:54 AM 33.8 °F 23.9 °F 19.4 °F 56% 30.04 in 10.0 mi WSW 15.0 mph 20.7 mph N/A   Clear
10:15 AM 33.8 °F 24.3 °F 19.4 °F 56% 30.04 in 10.0 mi West 13.8 mph 24.2 mph N/A   Scattered Clouds
10:34 AM 35.6 °F 26.2 °F 19.4 °F 52% 30.05 in 10.0 mi WSW 15.0 mph 24.2 mph N/A   Mostly Cloudy
10:55 AM 33.8 °F 22.8 °F 19.4 °F 56% 30.05 in 10.0 mi West 18.4 mph 26.5 mph N/A   Mostly Cloudy
11:15 AM 33.8 °F 23.5 °F 19.4 °F 56% 30.05 in 10.0 mi West 16.1 mph 25.3 mph N/A   Mostly Cloudy
11:34 AM 33.8 °F 21.9 °F 19.4 °F 56% 30.05 in 10.0 mi West 21.9 mph 27.6 mph N/A   Overcast
11:55 AM 33.8 °F 23.9 °F 21.2 °F 60% 30.05 in 10.0 mi WSW 15.0 mph 23.0 mph N/A Snow Light Snow
12:15 PM 33.8 °F 23.9 °F 21.2 °F 60% 30.05 in 10.0 mi West 15.0 mph 19.6 mph N/A   Overcast
12:34 PM 33.8 °F 26.4 °F 19.4 °F 56% 30.05 in 10.0 mi WSW 9.2 mph 24.2 mph N/A   Overcast
12:55 PM 32.0 °F 21.2 °F 19.4 °F 60% 30.05 in 10.0 mi West 16.1 mph 26.5 mph N/A Snow Light Snow
1:14 PM 33.8 °F 23.5 °F 19.4 °F 56% 30.05 in 10.0 mi West 16.1 mph 20.7 mph N/A   Overcast
1:34 PM 32.0 °F 22.1 °F 21.2 °F 64% 30.05 in 10.0 mi West 13.8 mph 21.9 mph N/A Snow Light Snow
1:55 PM 33.8 °F 23.5 °F 19.4 °F 56% 30.05 in 10.0 mi West 16.1 mph 21.9 mph N/A   Overcast
2:15 PM 32.0 °F 19.8 °F 17.6 °F 55% 30.06 in 10.0 mi West 20.7 mph 27.6 mph N/A   Overcast
2:35 PM 32.0 °F 19.5 °F 19.4 °F 60% 30.07 in 10.0 mi West 21.9 mph 28.8 mph N/A   Overcast
2:55 PM 32.0 °F 21.2 °F 19.4 °F 60% 30.07 in 10.0 mi West 16.1 mph 23.0 mph N/A   Overcast
3:14 PM 30.2 °F 18.5 °F 17.6 °F 60% 30.08 in 10.0 mi West 17.3 mph 24.2 mph N/A   Overcast
3:35 PM 30.2 °F 18.9 °F 17.6 °F 60% 30.09 in 10.0 mi West 16.1 mph 24.2 mph N/A   Overcast
3:55 PM 30.2 °F 19.3 °F 17.6 °F 60% 30.10 in 10.0 mi West 15.0 mph 23.0 mph N/A Snow Light Snow
4:14 PM 30.2 °F 20.2 °F 19.4 °F 64% 30.10 in 10.0 mi West 12.7 mph 21.9 mph N/A   Overcast
4:35 PM 30.2 °F 18.5 °F 17.6 °F 60% 30.11 in 10.0 mi West 17.3 mph 23.0 mph N/A   Overcast
4:55 PM 30.2 °F 19.8 °F 17.6 °F 60% 30.12 in 10.0 mi West 13.8 mph 19.6 mph N/A   Overcast
5:14 PM 30.2 °F 21.3 °F 17.6 °F 60% 30.12 in 10.0 mi West 10.4 mph - N/A   Overcast
5:35 PM 30.2 °F 19.8 °F 17.6 °F 60% 30.13 in 10.0 mi West 13.8 mph 19.6 mph N/A   Overcast
5:54 PM 30.2 °F 19.3 °F 17.6 °F 60% 30.13 in 10.0 mi West 15.0 mph - N/A   Overcast
6:15 PM 30.2 °F 21.9 °F 17.6 °F 60% 30.14 in 10.0 mi West 9.2 mph 18.4 mph N/A   Overcast
6:34 PM 30.2 °F 21.3 °F 17.6 °F 60% 30.15 in 10.0 mi West 10.4 mph - N/A   Scattered Clouds
6:54 PM 28.4 °F 20.4 °F 17.6 °F 64% 30.16 in 10.0 mi WSW 8.1 mph - N/A   Scattered Clouds
7:15 PM 28.4 °F 21.2 °F 17.6 °F 64% 30.16 in 10.0 mi WSW 6.9 mph - N/A   Scattered Clouds
7:34 PM 28.4 °F 22.2 °F 17.6 °F 64% 30.17 in 10.0 mi West 5.8 mph - N/A   Clear
7:55 PM 28.4 °F 22.2 °F 17.6 °F 64% 30.17 in 10.0 mi WSW 5.8 mph - N/A   Scattered Clouds
8:34 PM 28.4 °F 22.2 °F 17.6 °F 64% 30.18 in 10.0 mi WSW 5.8 mph - N/A   Clear
8:55 PM 28.4 °F 22.2 °F 17.6 °F 64% 30.18 in 10.0 mi SW 5.8 mph - N/A   Clear
9:14 PM 28.4 °F - 17.6 °F 64% 30.19 in 10.0 mi Calm Calm - N/A   Clear
9:35 PM 26.6 °F - 17.6 °F 69% 30.19 in 10.0 mi Calm Calm - N/A   Clear
9:55 PM 26.6 °F - 17.6 °F 69% 30.19 in 10.0 mi Calm Calm - N/A   Clear
10:14 PM 26.6 °F - 17.6 °F 69% 30.20 in 10.0 mi Calm Calm - N/A   Clear
10:35 PM 28.4 °F 22.2 °F 17.6 °F 64% 30.20 in 10.0 mi SW 5.8 mph - N/A   Clear
10:54 PM 26.6 °F 20.0 °F 15.8 °F 64% 30.20 in 10.0 mi SW 5.8 mph - N/A   Clear
11:35 PM 26.6 °F 21.2 °F 15.8 °F 64% 30.20 in 10.0 mi WSW 4.6 mph - N/A   Clear
11:54 PM 26.6 °F 21.2 °F 15.8 °F 64% 30.20 in 10.0 mi SW 4.6 mph - N/A   Clear